This demonstration page uses our WeatherBlox Daily Observations layout. Learn more.

Left ArrowRight Arrow

38.20091, -84.87328

Hourly Observations for January 20, 2016

Temp ( °F °C ) Dew Point ( °F °C ) Humidity (%) Winds ( mph kmh ) Pressure ( in mb ) Visibility ( mi km ) Precip ( " mm )
12:53 am 00:53 Mostly Cloudy 18 -7.8 5 -15 57 57 ESE 6 9 30.38 1029 10 16 0.00 0.00
1:53 am 01:53 Cloudy 19 -7.2 6 -14.4 57 57 ESE 3 6 30.36 1028 10 16 0.00 0.00
2:53 am 02:53 Cloudy 20 -6.7 6 -14.4 55 55 ENE 5 7 30.37 1029 10 16 0.00 0.00
3:25 am 03:25 Cloudy with Light Snow 19 -7.2 9 -12.8 65 65 ENE 8 13 30.39 1029 3 4 0.00 0.03
3:35 am 03:35 Cloudy with Light Snow 19 -7.2 11 -11.7 71 71 E 7 11 30.39 1029 1 2 0.00 0.03
3:53 am 03:53 Cloudy with Light Snow 18 -7.8 12 -11.1 77 77 E 5 7 30.35 1028 1 2 0.00 0.03
4:03 am 04:03 Mostly Cloudy with Light Snow 18 -7.8 13 -10.6 81 81 E 7 11 30.39 1029 1 2 0.00 0.03
4:11 am 04:11 Mostly Cloudy with Light Snow 18 -7.8 13 -10.6 81 81 E 6 9 30.39 1029 1 1 0.00 0.03
4:29 am 04:29 Mostly Cloudy with Light Snow 18 -7.8 14 -10 84 84 E 7 11 30.39 1029 1 2 0.00 0.03
4:45 am 04:45 Mostly Cloudy with Light Snow 18 -7.8 14 -10 84 84 ESE 6 9 30.36 1028 1 1 0.00 0.03
4:53 am 04:53 Mostly Cloudy with Light Snow 18 -7.8 14 -10 84 84 ESE 8 13 30.31 1026 1 1 0.00 0.03
5:04 am 05:04 Mostly Cloudy with Light Snow 18 -7.8 14 -10 84 84 ESE 7 11 30.36 1028 1 2 0.00 0.03
5:11 am 05:11 Cloudy with Light Snow 18 -7.8 14 -10 84 84 E 7 11 30.36 1028 2 3 0.00 0.03
5:53 am 05:53 Cloudy with Light Snow 18 -7.8 14 -10 84 84 ESE 8 13 30.28 1025 1 2 0.00 0.03
6:46 am 06:46 Cloudy with Light Snow 18 -7.8 14 -10 84 84 SE 5 7 30.33 1027 3 4 0.00 0.03
6:53 am 06:53 Cloudy with Light Snow 18 -7.8 14 -10 84 84 SE 6 9 30.26 1025 2 2 0.00 0.03
6:58 am 06:58 Cloudy with Light Snow 18 -7.8 14 -10 84 84 ESE 8 13 30.30 1026 1 1 0.00 0.03
7:10 am 07:10 Mostly Cloudy with Light Snow 19 -7.2 15 -9.4 84 84 ESE 8 13 30.30 1026 1 2 0.00 0.03
7:19 am 07:19 Cloudy with Light Snow 19 -7.2 15 -9.4 84 84 ESE 7 11 30.30 1026 1 2 0.00 0.03
7:35 am 07:35 Cloudy with Light Snow 19 -7.2 15 -9.4 84 84 ESE 7 11 30.30 1026 1 1 0.00 0.03
7:49 am 07:49 Cloudy with Light Snow 19 -7 16 -9 86 86 E 6 9 30.30 1026 1 2 0.00 0.03
7:50 am 07:50 Cloudy with Light Snow 19 -7.2 15 -9.4 84 84 E 5 7 30.24 1024 1 2 0.00 0.03
8:00 am 08:00 Cloudy with Light Snow 19 -7.2 15 -9.4 84 84 ESE 7 11 30.30 1026 2 3 0.00 0.03
8:09 am 08:09 Cloudy with Light Snow 19 -7.2 15 -9.4 84 84 E 5 7 30.30 1026 2 3 0.00 0.03
8:21 am 08:21 Cloudy with Light Snow 19 -7.2 15 -9.4 84 84 Calm 30.30 1026 1 1 0.00 0.03
8:31 am 08:31 Cloudy with Light Snow 20 -6.7 15 -9.4 81 81 E 5 7 30.24 1024 1 2 0.00 0.03
8:43 am 08:43 Cloudy with Light Snow 20 -6.7 16 -8.9 85 85 E 6 9 30.24 1024 2 3 0.00 0.03
8:49 am 08:49 Cloudy with Light Snow 19 -7 16 -9 86 86 E 5 7 30.24 1024 1 2 0.00 0.03
8:53 am 08:53 Cloudy with Light Snow 20 -6.7 16 -8.9 85 85 E 5 7 30.22 1024 1 1 0.00 0.03
9:01 am 09:01 Cloudy with Snow 20 -6.7 16 -8.9 85 85 E 5 7 30.24 1024 1 1 0.00 0.03
9:53 am 09:53 Mostly Cloudy with Snow 20 -6.7 17 -8.3 89 89 Calm 30.21 1023 0 0 0.00 0.03
10:15 am 10:15 Cloudy with Light Snow 21 -6.1 17 -8.3 85 85 Calm 30.24 1024 1 2 0.00 0.03
10:24 am 10:24 Cloudy with Light Snow 21 -6.1 17 -8.3 85 85 ENE 3 6 30.24 1024 2 2 0.00 0.03
10:34 am 10:34 Cloudy with Light Snow 21 -6.1 17 -8.3 85 85 Calm 30.24 1024 2 2 0.00 0.03
10:44 am 10:44 Cloudy with Light Snow 22 -5.6 17 -8.3 82 82 Calm 30.24 1024 3 5 0.00 0.03
10:51 am 10:51 Cloudy with Light Snow 21 -6 18 -8 86 86 Calm 30.24 1024 4 6 0.00 0.03
10:53 am 10:53 Cloudy with Light Snow 22 -5.6 18 -7.8 85 85 Calm 30.21 1023 4 6 0.00 0.03
11:05 am 11:05 Cloudy with Light Snow 22 -5.6 18 -7.8 85 85 Calm 30.24 1024 2 3 0.00 0.03
11:18 am 11:18 Cloudy with Light Snow 22 -5.6 18 -7.8 85 85 Calm 30.24 1024 4 6 0.00 0.03
11:53 am 11:53 Cloudy 23 -5 18 -7.8 81 81 NNW 3 6 30.20 1023 10 16 0.00 0.03
12:20 pm 12:20 Cloudy 22 -5.6 18 -7.8 85 85 NNW 3 6 30.21 1023 10 16 0.00 0.00
12:53 pm 12:53 Cloudy 23 -5 18 -7.8 81 81 Calm 30.18 1022 9 14 0.00 0.00
1:53 pm 13:53 Cloudy 24 -4.4 19 -7.2 81 81 NW 3 6 30.16 1021 10 16 0.00 0.00
2:53 pm 14:53 Cloudy 24 -4.4 19 -7.2 81 81 WNW 6 9 30.16 1021 10 16 0.00 0.00
3:26 pm 15:26 Cloudy 25 -3.9 19 -7.2 78 78 WNW 5 7 30.18 1022 10 16 0.00 0.00
3:38 pm 15:38 Cloudy 25 -3.9 19 -7.2 78 78 NW 6 9 30.18 1022 10 16 0.00 0.00
3:53 pm 15:53 Cloudy 25 -3.9 18 -7.8 75 75 NW 7 11 30.17 1022 10 16 0.00 0.00
4:21 pm 16:21 Cloudy 25 -3.9 18 -7.8 75 75 NW 6 9 30.21 1023 10 16 0.00 0.00
4:53 pm 16:53 Cloudy 25 -3.9 18 -7.8 75 75 WNW 5 7 30.19 1023 10 16 0.00 0.00
5:53 pm 17:53 Cloudy 24 -4.4 17 -8.3 75 75 NNW 6 9 30.22 1023 10 16 0.00 0.00
6:53 pm 18:53 Cloudy 23 -5 17 -8.3 78 78 Calm 30.25 1024 10 16 0.00 0.00
7:53 pm 19:53 Cloudy 23 -5 16 -8.9 74 74 WNW 3 6 30.27 1025 10 16 0.00 0.00
8:53 pm 20:53 Cloudy 23 -5 16 -8.9 74 74 N 3 6 30.28 1025 10 16 0.00 0.00
9:53 pm 21:53 Cloudy 23 -5 15 -9.4 72 72 NNE 3 6 30.28 1025 10 16 0.00 0.00
10:53 pm 22:53 Cloudy 22 -5.6 15 -9.4 75 75 Calm 30.31 1026 10 16 0.00 0.00
11:24 pm 23:24 Cloudy 22 -5.6 15 -9.4 75 75 NE 3 6 30.33 1027 10 16 0.00 0.00
11:53 pm 23:53 Cloudy 22 -5.6 15 -9.4 75 75 Calm 30.31 1027 10 16 0.00 0.00

Powered by AerisWeather